TimeCDT,TemperatureF,Dew PointF,Humidity,Sea Level PressureIn,VisibilityMPH,Wind Direction,Wind SpeedMPH,Gust SpeedMPH,PrecipitationIn,Events,Conditions,WindDirDegrees,DateUTC
12:15 AM,69.8,66.2,88,29.87,10.0,North,-9999.0,-,N/A,,Clear,0,2013-09-24 05:15:00
12:35 AM,69.8,66.2,88,29.87,10.0,North,-9999.0,-,N/A,,Clear,0,2013-09-24 05:35:00
12:55 AM,69.8,66.2,88,29.87,10.0,North,-9999.0,-,N/A,,Mostly Cloudy,0,2013-09-24 05:55:00
1:15 AM,71.6,66.2,83,29.87,10.0,North,-9999.0,-,N/A,,Overcast,0,2013-09-24 06:15:00
1:35 AM,71.6,66.2,83,29.87,10.0,North,-9999.0,-,N/A,,Overcast,0,2013-09-24 06:35:00
1:55 AM,71.6,66.2,83,29.87,10.0,North,-9999.0,-,N/A,,Mostly Cloudy,0,2013-09-24 06:55:00
2:15 AM,71.6,68.0,88,29.87,10.0,North,-9999.0,-,N/A,,Overcast,0,2013-09-24 07:15:00
2:35 AM,73.4,68.0,83,29.87,10.0,North,-9999.0,-,N/A,,Overcast,0,2013-09-24 07:35:00
2:55 AM,73.4,68.0,83,29.87,10.0,North,-9999.0,-,N/A,,Overcast,0,2013-09-24 07:55:00
3:15 AM,73.4,66.2,78,29.87,10.0,North,-9999.0,-,N/A,,Overcast,0,2013-09-24 08:15:00
3:35 AM,73.4,66.2,78,29.87,10.0,North,-9999.0,-,N/A,,Overcast,0,2013-09-24 08:35:00
3:55 AM,73.4,66.2,78,29.87,10.0,North,-9999.0,-,N/A,,Mostly Cloudy,0,2013-09-24 08:55:00
4:15 AM,71.6,66.2,83,29.87,10.0,North,-9999.0,-,N/A,,Mostly Cloudy,0,2013-09-24 09:15:00
4:35 AM,71.6,66.2,83,29.86,10.0,North,-9999.0,-,N/A,,Partly Cloudy,0,2013-09-24 09:35:00
4:55 AM,71.6,66.2,83,29.86,10.0,North,-9999.0,-,N/A,,Clear,0,2013-09-24 09:55:00
5:15 AM,71.6,66.2,83,29.87,10.0,North,-9999.0,-,N/A,,Clear,0,2013-09-24 10:15:00
5:35 AM,69.8,64.4,83,29.87,10.0,North,-9999.0,-,N/A,,Clear,0,2013-09-24 10:35:00
5:55 AM,69.8,64.4,83,29.88,10.0,North,-9999.0,-,N/A,,Clear,0,2013-09-24 10:55:00
6:15 AM,69.8,64.4,83,29.88,10.0,North,-9999.0,-,N/A,,Clear,0,2013-09-24 11:15:00
6:35 AM,68.0,64.4,88,29.88,10.0,North,-9999.0,-,N/A,,Clear,0,2013-09-24 11:35:00
6:55 AM,68.0,64.4,88,29.89,10.0,North,-9999.0,-,N/A,,Clear,0,2013-09-24 11:55:00
7:15 AM,68.0,64.4,88,29.89,10.0,North,-9999.0,-,N/A,,Clear,0,2013-09-24 12:15:00
7:35 AM,69.8,64.4,83,29.90,10.0,North,-9999.0,-,N/A,,Clear,0,2013-09-24 12:35:00
7:55 AM,69.8,66.2,88,29.90,10.0,North,-9999.0,-,N/A,,Clear,0,2013-09-24 12:55:00
8:15 AM,71.6,66.2,83,29.90,10.0,North,-9999.0,-,N/A,,Clear,0,2013-09-24 13:15:00
8:35 AM,75.2,66.2,73,29.90,10.0,North,-9999.0,-,N/A,,Clear,0,2013-09-24 13:35:00
8:55 AM,77.0,66.2,69,29.91,10.0,North,-9999.0,-,N/A,,Clear,0,2013-09-24 13:55:00
9:15 AM,78.8,68.0,69,29.92,10.0,North,-9999.0,-,N/A,,Clear,0,2013-09-24 14:15:00
9:35 AM,80.6,68.0,65,29.92,10.0,North,-9999.0,-,N/A,,Clear,0,2013-09-24 14:35:00
9:55 AM,82.4,68.0,62,29.92,10.0,North,-9999.0,-,N/A,,Clear,0,2013-09-24 14:55:00
10:15 AM,84.2,68.0,58,29.92,10.0,North,-9999.0,-,N/A,,Clear,0,2013-09-24 15:15:00
10:35 AM,84.2,66.2,55,29.92,10.0,North,-9999.0,-,N/A,,Clear,0,2013-09-24 15:35:00
10:55 AM,86.0,66.2,51,29.92,10.0,North,-9999.0,-,N/A,,Clear,0,2013-09-24 15:55:00
11:15 AM,87.8,64.4,46,29.92,10.0,North,-9999.0,-,N/A,,Clear,0,2013-09-24 16:15:00
11:35 AM,87.8,62.6,43,29.92,10.0,North,-9999.0,-,N/A,,Clear,0,2013-09-24 16:35:00
11:55 AM,89.6,62.6,40,29.91,10.0,North,-9999.0,-,N/A,,Clear,0,2013-09-24 16:55:00
12:15 PM,89.6,62.6,40,29.91,10.0,North,-9999.0,-,N/A,,Clear,0,2013-09-24 17:15:00
12:55 PM,91.4,62.6,38,29.90,10.0,North,-9999.0,-,N/A,,Clear,0,2013-09-24 17:55:00
1:15 PM,91.4,59.0,34,29.90,10.0,North,-9999.0,-,N/A,,Clear,0,2013-09-24 18:15:00
1:35 PM,91.4,59.0,34,29.89,10.0,North,-9999.0,-,N/A,,Clear,0,2013-09-24 18:35:00
1:55 PM,91.4,57.2,31,29.88,10.0,North,-9999.0,-,N/A,,Clear,0,2013-09-24 18:55:00
2:15 PM,91.4,57.2,31,29.87,10.0,North,-9999.0,-,N/A,,Clear,0,2013-09-24 19:15:00
2:35 PM,93.2,55.4,28,29.87,10.0,North,-9999.0,-,N/A,,Clear,0,2013-09-24 19:35:00
2:55 PM,93.2,57.2,30,29.86,10.0,North,-9999.0,-,N/A,,Clear,0,2013-09-24 19:55:00
3:15 PM,93.2,55.4,28,29.86,10.0,North,-9999.0,-,N/A,,Clear,0,2013-09-24 20:15:00
3:35 PM,93.2,55.4,28,29.85,10.0,North,-9999.0,-,N/A,,Clear,0,2013-09-24 20:35:00
3:55 PM,93.2,55.4,28,29.85,10.0,North,-9999.0,-,N/A,,Clear,0,2013-09-24 20:55:00
4:15 PM,93.2,55.4,28,29.84,10.0,North,-9999.0,-,N/A,,Clear,0,2013-09-24 21:15:00
4:35 PM,93.2,57.2,30,29.84,10.0,North,-9999.0,-,N/A,,Clear,0,2013-09-24 21:35:00
4:55 PM,93.2,57.2,30,29.84,10.0,North,-9999.0,-,N/A,,Clear,0,2013-09-24 21:55:00
5:15 PM,93.2,57.2,30,29.84,10.0,North,-9999.0,-,N/A,,Clear,0,2013-09-24 22:15:00
5:35 PM,93.2,55.4,28,29.84,10.0,North,-9999.0,-,N/A,,Clear,0,2013-09-24 22:35:00
5:55 PM,91.4,55.4,29,29.84,10.0,North,-9999.0,-,N/A,,Clear,0,2013-09-24 22:55:00
6:15 PM,91.4,55.4,29,29.84,10.0,North,-9999.0,-,N/A,,Clear,0,2013-09-24 23:15:00
6:35 PM,89.6,55.4,31,29.84,10.0,North,-9999.0,-,N/A,,Clear,0,2013-09-24 23:35:00
6:55 PM,87.8,53.6,31,29.85,10.0,North,-9999.0,-,N/A,,Clear,0,2013-09-24 23:55:00
7:15 PM,86.0,53.6,33,29.85,10.0,North,-9999.0,-,N/A,,Clear,0,2013-09-25 00:15:00
7:35 PM,80.6,60.8,51,29.85,10.0,North,-9999.0,-,N/A,,Clear,0,2013-09-25 00:35:00
7:55 PM,78.8,60.8,54,29.86,10.0,North,-9999.0,-,N/A,,Clear,0,2013-09-25 00:55:00
8:15 PM,77.0,60.8,57,29.86,10.0,North,-9999.0,-,N/A,,Clear,0,2013-09-25 01:15:00
8:35 PM,75.2,60.8,61,29.87,10.0,North,-9999.0,-,N/A,,Clear,0,2013-09-25 01:35:00
8:55 PM,73.4,60.8,65,29.87,10.0,North,-9999.0,-,N/A,,Clear,0,2013-09-25 01:55:00
9:15 PM,71.6,60.8,69,29.88,10.0,North,-9999.0,-,N/A,,Clear,0,2013-09-25 02:15:00
9:35 PM,71.6,62.6,73,29.88,10.0,North,-9999.0,-,N/A,,Clear,0,2013-09-25 02:35:00
9:55 PM,71.6,62.6,73,29.88,10.0,North,-9999.0,-,N/A,,Clear,0,2013-09-25 02:55:00
10:15 PM,69.8,62.6,78,29.89,10.0,North,-9999.0,-,N/A,,Clear,0,2013-09-25 03:15:00
10:35 PM,69.8,62.6,78,29.89,10.0,North,-9999.0,-,N/A,,Clear,0,2013-09-25 03:35:00
10:55 PM,69.8,62.6,78,29.88,10.0,North,-9999.0,-,N/A,,Clear,0,2013-09-25 03:55:00
11:15 PM,68.0,62.6,83,29.88,10.0,North,-9999.0,-,N/A,,Clear,0,2013-09-25 04:15:00
11:35 PM,68.0,62.6,83,29.88,10.0,North,-9999.0,-,N/A,,Clear,0,2013-09-25 04:35:00
11:55 PM,66.2,62.6,88,29.88,10.0,North,-9999.0,-,N/A,,Clear,0,2013-09-25 04:55:00